TimeEST,TemperatureF,Dew PointF,Humidity,Sea Level PressureIn,VisibilityMPH,Wind Direction,Wind SpeedMPH,Gust SpeedMPH,PrecipitationIn,Events,Conditions,WindDirDegrees,DateUTC
12:53 AM,50.0,45.0,83,30.17,10.0,Calm,Calm,-,N/A,,Clear,0,2013-03-05 05:53:00
2:53 AM,46.9,44.1,90,30.14,10.0,Calm,Calm,-,N/A,,Clear,0,2013-03-05 07:53:00
3:53 AM,46.9,41.0,80,30.14,10.0,Calm,Calm,-,N/A,,Clear,0,2013-03-05 08:53:00
4:53 AM,46.9,42.1,83,30.14,10.0,ENE,3.5,-,N/A,,Clear,60,2013-03-05 09:53:00
5:53 AM,46.0,42.1,86,30.16,9.0,Calm,Calm,-,N/A,,Clear,0,2013-03-05 10:53:00
6:53 AM,46.9,42.1,83,30.17,9.0,East,3.5,-,N/A,,Clear,90,2013-03-05 11:53:00
8:53 AM,61.0,46.0,58,30.17,10.0,SE,5.8,-,N/A,,Clear,130,2013-03-05 13:53:00
9:53 AM,68.0,50.0,52,30.17,10.0,ESE,8.1,-,N/A,,Clear,120,2013-03-05 14:53:00
10:53 AM,71.1,52.0,51,30.17,10.0,Variable,6.9,-,N/A,,Clear,0,2013-03-05 15:53:00
11:53 AM,72.0,54.0,53,30.17,10.0,SSW,11.5,-,N/A,,Partly Cloudy,200,2013-03-05 16:53:00
12:53 PM,72.0,53.1,51,30.15,10.0,SW,10.4,-,N/A,,Clear,230,2013-03-05 17:53:00
1:53 PM,73.0,54.0,51,30.12,10.0,South,12.7,-,N/A,,Clear,190,2013-03-05 18:53:00
2:53 PM,72.0,55.0,55,30.11,10.0,South,12.7,20.7,N/A,,Clear,190,2013-03-05 19:53:00
3:53 PM,72.0,54.0,53,30.11,10.0,SSW,12.7,-,N/A,,Clear,210,2013-03-05 20:53:00
4:53 PM,71.1,55.0,57,30.11,10.0,SW,8.1,-,N/A,,Clear,230,2013-03-05 21:53:00
5:53 PM,69.1,55.9,63,30.12,10.0,WSW,8.1,-,N/A,,Clear,250,2013-03-05 22:53:00
6:53 PM,66.0,57.0,73,30.13,10.0,West,3.5,-,N/A,,Clear,280,2013-03-05 23:53:00
7:53 PM,64.9,57.0,75,30.12,10.0,WSW,3.5,-,N/A,,Clear,240,2013-03-06 00:53:00
8:53 PM,63.0,57.0,81,30.12,10.0,SW,4.6,-,N/A,,Clear,230,2013-03-06 01:53:00
9:53 PM,63.0,57.9,84,30.11,10.0,SW,4.6,-,N/A,,Clear,230,2013-03-06 02:53:00
10:53 PM,64.0,57.9,80,30.12,10.0,WSW,5.8,-,N/A,,Clear,250,2013-03-06 03:53:00
11:53 PM,64.9,57.9,78,30.10,10.0,SW,6.9,-,N/A,,Clear,230,2013-03-06 04:53:00